EW3721 Weather Reports


time (UTC)temp
C
wind
direction
speed
KPH
gust
KPH
rain 1hr
cm
rain 24hr
cm
rain mn
cm
humidity
%
barometer
mb
20260903232106 25 221 0.0 0.0 0.00 1.22 1.22 90 1011.8
20260903231105 25 221 0.0 0.0 0.00 1.22 1.22 89 1011.9
20260903230606 25 221 0.0 0.0 0.00 1.22 1.22 89 1011.8
20260903230105 25 221 0.0 0.0 0.00 1.22 1.22 89 1011.8
20260903225605 25 221 0.0 0.0 0.00 1.22 1.22 89 1011.8
20260903224606 25 221 0.0 0.0 0.00 1.22 1.22 89 1012.0
20260903224106 25 221 0.0 0.0 0.00 1.22 1.22 88 1012.0
20260903223605 25 221 0.0 0.0 0.00 1.22 1.22 88 1012.0
20260903222606 25 221 0.0 0.0 0.00 1.22 1.22 87 1012.2
20260903222106 25 221 0.0 0.0 0.00 1.22 1.22 86 1012.2
20260903221106 26 221 0.0 0.0 0.00 1.22 1.22 85 1012.2
20260903220606 26 221 0.0 0.0 0.00 1.22 1.22 85 1012.1
20260903215606 26 221 0.0 0.0 0.00 1.22 1.22 85 1012.2
20260903215106 26 221 0.0 0.0 0.00 1.22 1.22 84 1012.2
20260903214106 26 221 0.0 0.0 0.00 1.22 1.22 82 1012.3
20260903213607 27 221 0.0 0.0 0.00 1.22 1.22 82 1012.1
20260903213105 27 221 0.0 0.0 0.00 1.22 1.22 81 1012.0
20260903212606 27 221 0.0 0.0 0.00 1.22 1.22 84 1011.9
20260903212106 27 221 0.0 0.0 0.00 1.22 1.22 85 1011.9
20260903211106 27 222 0.0 0.0 0.00 1.22 1.22 85 1012.0
20260903210606 27 222 0.0 0.0 0.00 1.22 1.22 85 1012.0
20260903210106 27 222 0.0 0.0 0.00 1.22 1.22 84 1012.1
20260903205606 27 222 0.0 0.0 0.00 1.22 1.22 83 1012.2
20260903204606 27 222 0.0 0.0 0.00 1.22 1.22 83 1012.1
20260903204106 27 222 0.0 0.0 0.00 1.22 1.22 82 1012.2
20260903203607 27 222 0.0 1.6 0.00 1.22 1.22 80 1012.1
20260903202606 27 222 0.0 0.0 0.00 1.22 1.22 81 1012.2
20260903202106 27 222 0.0 1.6 0.00 1.22 1.22 82 1012.2
20260903201606 28 222 0.0 1.6 0.00 1.22 1.22 82 1012.2
20260903201106 28 222 0.0 1.6 0.00 1.22 1.22 80 1012.1
20260903200606 28 222 0.0 0.0 0.00 1.22 1.22 81 1012.1
20260903200106 28 222 0.0 0.0 0.00 1.22 1.22 81 1012.1
20260903195106 28 222 0.0 0.0 0.00 1.22 1.22 79 1012.3
20260903194606 28 222 0.0 1.6 0.00 1.22 1.22 78 1012.3
20260903194105 28 222 0.0 3.2 0.00 1.22 1.22 77 1012.4
20260903193606 28 222 1.6 4.8 0.00 1.22 1.22 76 1012.3
20260903193106 28 214 0.0 1.6 0.00 1.22 1.22 77 1012.3
20260903192606 28 214 0.0 1.6 0.00 1.22 1.22 76 1012.3
20260903191106 28 227 1.6 4.8 0.00 1.22 1.22 78 1012.5
20260903190605 28 222 0.0 4.8 0.00 1.22 1.22 78 1012.5
20260903190106 27 240 0.0 3.2 0.00 1.22 1.22 78 1012.7
20260903185106 27 151 3.2 4.8 0.00 1.22 1.22 76 1012.8
20260903184106 27 43 1.6 4.8 0.00 1.22 1.22 79 1012.8
20260903183605 27 244 1.6 3.2 0.00 1.22 1.22 78 1012.9
20260903183106 27 244 1.6 4.8 0.00 1.22 1.22 78 1013.0
20260903182605 27 142 1.6 4.8 0.00 1.22 1.22 78 1013.0
20260903182106 27 238 0.0 4.8 0.00 1.22 1.22 81 1013.0
20260903181606 27 240 0.0 4.8 0.00 1.22 1.22 83 1012.9
20260903181105 27 172 0.0 3.2 0.00 1.22 1.22 82 1013.0
20260903180106 26 250 3.2 4.8 0.00 1.22 1.22 80 1013.1
20260903175606 26 220 1.6 4.8 0.00 1.22 1.22 83 1013.2
20260903175105 26 223 1.6 4.8 0.00 1.22 1.22 80 1013.2
20260903174105 26 205 1.6 3.2 0.00 1.22 1.22 80 1013.1
20260903173605 26 240 1.6 4.8 0.00 1.22 1.22 82 1013.2
20260903173106 26 243 1.6 3.2 0.00 1.22 1.22 81 1013.3
20260903172605 26 242 0.0 8.0 0.00 1.22 1.22 80 1013.3
20260903171605 26 198 3.2 12.9 0.00 1.22 1.22 84 1013.3
20260903171106 25 210 1.6 4.8 0.00 1.22 1.22 85 1013.4
20260903170605 25 216 1.6 3.2 0.00 1.22 1.22 84 1013.4
20260903170106 25 219 0.0 4.8 0.00 1.22 1.22 83 1013.3
20260903165605 25 208 3.2 4.8 0.00 1.22 1.22 86 1013.3
20260903165106 25 202 1.6 3.2 0.00 1.22 1.22 88 1013.4
20260903164605 25 202 1.6 3.2 0.00 1.22 1.22 88 1013.4
20260903164106 24 202 0.0 4.8 0.00 1.22 1.22 87 1013.4
20260903163605 24 148 1.6 4.8 0.00 1.22 1.22 88 1013.5
20260903163106 24 142 1.6 3.2 0.00 1.22 1.22 87 1013.6
20260903162105 24 187 3.2 11.3 0.00 1.22 1.22 89 1013.6
20260903161605 24 215 3.2 4.8 0.00 1.22 1.22 89 1013.8
20260903161105 23 208 1.6 4.8 0.00 1.22 1.22 90 1013.9
20260903160605 23 157 1.6 4.8 0.00 1.22 1.22 91 1013.9
20260903160106 23 208 3.2 11.3 0.00 1.22 1.22 93 1013.9
20260903155605 23 202 1.6 4.8 0.00 1.22 1.22 94 1014.0
20260903155106 23 157 1.6 4.8 0.00 1.22 1.22 94 1013.9
20260903154606 23 148 1.6 4.8 0.00 1.22 1.22 95 1013.9
20260903154105 23 216 0.0 3.2 0.00 1.22 1.22 96 1014.0
20260903153606 23 198 0.0 1.6 0.00 1.22 1.22 95 1014.1
20260903153105 23 198 0.0 1.6 0.00 1.22 1.22 96 1014.2
20260903152605 23 198 1.6 3.2 0.00 1.22 1.22 96 1014.2
20260903151605 23 198 0.0 3.2 0.00 1.22 1.22 96 1014.2
20260903151105 22 198 1.6 3.2 0.00 1.22 1.22 96 1014.4
20260903150605 22 198 0.0 3.2 0.00 1.22 1.22 96 1014.4
20260903145605 22 208 1.6 4.8 0.00 1.22 1.22 97 1014.3
20260903144606 22 117 0.0 3.2 0.00 1.22 1.22 97 1014.2
20260903144106 22 222 1.6 4.8 0.00 1.22 1.22 97 1014.2
20260903143605 22 209 0.0 4.8 0.00 1.22 1.22 97 1014.2
20260903143106 22 212 1.6 4.8 0.00 1.22 1.22 97 1014.2
20260903142105 22 250 1.6 3.2 0.00 1.22 1.22 98 1014.3
20260903141605 22 250 1.6 3.2 0.00 1.22 1.22 97 1014.4
20260903140605 22 250 0.0 3.2 0.00 1.22 1.22 98 1014.5
20260903135605 22 247 1.6 3.2 0.00 1.22 1.22 98 1014.5
20260903135107 22 246 0.0 1.6 0.00 1.22 1.22 98 1014.5
20260903134605 22 246 0.0 1.6 0.00 1.22 1.22 97 1014.6
20260903134106 22 246 0.0 1.6 0.00 1.22 1.22 97 1014.7
20260903133607 22 246 1.6 3.2 0.00 1.22 1.22 98 1014.6
20260903133105 22 246 1.6 3.2 0.00 1.22 1.22 98 1014.6
20260903132605 22 246 1.6 3.2 0.00 1.22 1.22 98 1014.6
20260903132105 21 245 1.6 3.2 0.00 1.22 1.22 98 1014.7
20260903131605 21 251 1.6 3.2 0.00 1.22 1.22 98 1015.0
20260903131105 21 202 1.6 3.2 0.00 1.22 1.22 98 1015.0
20260903130605 21 182 0.0 3.2 0.00 1.22 1.22 98 1014.9
20260903130105 21 182 0.0 1.6 0.00 1.22 1.22 98 1015.0
20260903125606 21 182 0.0 3.2 0.00 1.22 1.22 98 1015.0
20260903125105 21 182 0.0 1.6 0.00 1.22 1.22 98 1015.0
20260903124606 20 186 0.0 0.0 0.00 1.22 1.22 98 1015.0
20260903124105 20 186 1.6 3.2 0.00 1.22 1.22 98 1015.0
20260903121605 20 186 0.0 0.0 0.00 1.22 1.22 97 1015.6
20260903121105 20 186 0.0 0.0 0.00 1.22 1.22 97 1015.5
20260903120605 20 186 0.0 1.6 0.00 1.22 1.22 97 1015.4
20260903120106 20 186 0.0 3.2 0.00 1.22 1.22 97 1015.5
20260903115606 20 215 0.0 0.0 0.00 1.22 1.22 97 1015.5
20260903115105 20 215 0.0 1.6 0.00 1.22 1.22 97 1015.6
20260903114605 20 215 1.6 3.2 0.00 1.22 1.22 97 1015.8
20260903114105 20 215 0.0 3.2 0.00 1.22 1.22 97 1015.7
20260903113605 20 215 0.0 1.6 0.00 1.22 1.22 97 1015.7
20260903113105 20 215 0.0 1.6 0.00 1.22 1.22 97 1015.8
20260903112605 20 215 0.0 3.2 0.00 1.22 1.22 97 1015.7
20260903112105 20 215 0.0 1.6 0.00 1.22 1.22 97 1015.8
20260903111605 19 215 0.0 3.2 0.00 1.22 1.22 97 1015.6
20260903110605 19 215 1.6 3.2 0.00 1.22 1.22 97 1015.6
20260903110105 19 215 0.0 1.6 0.00 1.22 1.22 97 1015.6
20260903105605 19 215 0.0 3.2 0.00 1.22 1.22 97 1015.6
20260903105105 19 215 0.0 3.2 0.00 1.22 1.22 97 1015.5
20260903104605 19 215 0.0 1.6 0.00 1.22 1.22 97 1015.4
20260903104105 19 215 0.0 0.0 0.00 1.22 1.22 97 1015.4
20260903103605 19 215 0.0 0.0 0.00 1.22 1.22 97 1015.3
20260903103105 19 215 0.0 0.0 0.00 1.22 1.22 97 1015.3
20260903102105 19 215 1.6 3.2 0.00 1.22 1.22 97 1015.5
20260903101605 19 215 0.0 0.0 0.00 1.22 1.22 97 1015.4
20260903101105 19 215 0.0 1.6 0.00 1.22 1.22 97 1015.3
20260903100605 19 215 0.0 0.0 0.00 1.22 1.22 97 1015.0
20260903100105 19 215 0.0 0.0 0.00 1.22 1.22 97 1014.8
20260903095605 19 215 0.0 1.6 0.00 1.22 1.22 97 1014.9
20260903095105 19 215 0.0 1.6 0.00 1.22 1.22 97 1015.0
20260903094605 19 215 0.0 3.2 0.00 1.22 1.22 97 1015.0
20260903094105 19 215 0.0 1.6 0.00 1.22 1.22 96 1014.8
20260903093105 19 215 0.0 1.6 0.00 1.22 1.22 96 1014.8
20260903092605 19 215 0.0 0.0 0.00 1.22 1.22 96 1014.8
20260903092105 19 215 0.0 0.0 0.00 1.22 1.22 96 1015.0
20260903091605 19 215 0.0 0.0 0.00 1.22 1.22 96 1015.0
20260903091105 19 215 0.0 0.0 0.00 1.22 1.22 96 1015.1
20260903090605 19 215 0.0 0.0 0.00 1.22 1.22 96 1015.0
20260903085605 19 215 0.0 1.6 0.00 1.22 1.22 96 1015.2
20260903085105 19 215 1.6 1.6 0.00 1.22 1.22 96 1015.1
20260903084605 19 215 1.6 3.2 0.00 1.22 1.22 96 1015.1
20260903084105 19 215 0.0 0.0 0.00 1.22 1.22 96 1015.1
20260903083106 19 215 0.0 0.0 0.00 1.22 1.22 96 1015.3
20260903082605 19 215 0.0 0.0 0.00 1.22 1.22 96 1015.4
20260903082105 19 215 1.6 1.6 0.03 1.22 1.22 96 1015.4
20260903081605 19 215 0.0 1.6 0.03 1.22 1.22 96 1015.5
20260903081105 19 215 0.0 0.0 0.03 1.22 1.22 96 1015.5
20260903080605 19 215 0.0 0.0 0.03 1.22 1.22 96 1015.6
20260903080106 19 215 0.0 0.0 0.03 1.22 1.22 96 1015.6
20260903075606 18 215 0.0 1.6 0.03 1.22 1.22 96 1015.7
20260903075105 18 215 0.0 0.0 0.05 1.22 1.22 96 1015.7
20260903074606 18 215 0.0 0.0 0.05 1.22 1.22 96 1015.8
20260903074105 18 215 0.0 0.0 0.05 1.22 1.22 96 1015.8
20260903073604 18 215 0.0 0.0 0.05 1.22 1.22 96 1016.0
20260903073105 18 215 0.0 0.0 0.05 1.22 1.22 96 1016.0
20260903072605 18 215 0.0 0.0 0.05 1.22 1.22 96 1016.1
20260903071606 18 215 1.6 3.2 0.08 1.19 1.19 96 1016.2
20260903071105 18 215 0.0 0.0 0.10 1.19 1.19 96 1016.0
20260903070605 18 215 0.0 1.6 0.18 1.19 1.19 96 1016.0
20260903070105 18 215 0.0 1.6 0.41 1.19 1.19 96 1016.1
20260903065605 18 215 0.0 1.6 0.71 1.19 1.19 96 1016.2
20260903065105 18 215 0.0 3.2 1.02 1.17 1.17 96 1016.0
20260903064605 18 215 1.6 3.2 1.12 1.17 1.17 95 1015.9
20260903064105 18 215 1.6 3.2 1.14 1.17 1.17 95 1015.8
20260903063605 18 215 0.0 1.6 1.14 1.17 1.17 95 1016.0
20260903063105 18 215 0.0 3.2 1.17 1.17 1.17 95 1016.3
20260903062605 18 215 1.6 3.2 1.17 1.17 1.17 95 1016.3
20260903062105 18 215 0.0 3.2 1.14 1.14 1.14 95 1016.2
20260903061606 18 184 0.0 3.2 1.12 1.12 1.12 95 1016.4
20260903061105 18 184 1.6 3.2 1.09 1.09 1.09 95 1016.7
20260903060105 18 184 1.6 3.2 0.79 0.79 0.79 95 1017.6
20260903055605 18 184 1.6 3.2 0.48 0.48 0.48 94 1017.7
20260903055105 18 184 1.6 3.2 0.15 0.15 0.15 94 1017.7
20260903054105 18 182 0.0 0.0 0.03 0.03 0.03 94 1017.6
20260903053605 18 182 0.0 3.2 0.03 0.03 0.03 94 1017.7
20260903053105 18 182 0.0 0.0 0.00 0.00 0.00 93 1017.7
20260903052605 18 182 0.0 0.0 0.00 0.00 0.00 93 1017.8
20260903052105 18 182 0.0 0.0 0.00 0.00 0.00 93 1017.9
20260903051616 18 182 0.0 0.0 0.00 0.00 0.00 93 1017.9
20260903051105 18 182 0.0 0.0 0.00 0.00 0.00 93 1017.9
20260903050605 18 182 0.0 0.0 0.00 0.00 0.00 93 1018.0
20260903050105 18 182 0.0 0.0 0.00 0.00 0.00 92 1018.1
20260903045605 18 182 0.0 0.0 0.00 0.00 0.00 92 1018.1
20260903044605 18 182 0.0 0.0 0.00 0.00 0.00 92 1018.3
20260903044105 18 182 0.0 0.0 0.00 0.00 0.00 92 1018.4
20260903043104 18 182 0.0 0.0 0.00 0.03 0.00 91 1018.3
20260903042605 18 182 0.0 0.0 0.00 0.03 0.00 91 1018.3
20260903042104 18 182 0.0 0.0 0.00 0.03 0.00 91 1018.5
20260903041605 18 182 0.0 0.0 0.00 0.03 0.00 91 1018.6
20260903041106 18 182 0.0 0.0 0.00 0.03 0.00 91 1018.6
20260903040105 18 182 0.0 3.2 0.00 0.03 0.00 91 1018.6
20260903035605 18 182 0.0 1.6 0.00 0.03 0.03 90 1018.4
20260903035105 18 182 0.0 1.6 0.00 0.03 0.03 90 1018.4
20260903034605 18 182 1.6 1.6 0.00 0.03 0.03 90 1018.4
20260903033604 18 182 0.0 1.6 0.00 0.03 0.03 90 1018.3
20260903033104 18 182 0.0 0.0 0.00 0.03 0.03 90 1018.2
20260903032604 18 182 0.0 1.6 0.00 0.03 0.03 90 1018.1
20260903032105 18 182 0.0 0.0 0.00 0.03 0.03 90 1018.3
20260903031605 18 182 0.0 1.6 0.00 0.03 0.03 90 1018.5
20260903031115 18 182 1.6 4.8 0.00 0.03 0.03 89 1018.6
20260903030635 18 183 0.0 0.0 0.00 0.03 0.03 89 1018.6
20260903030105 18 183 0.0 0.0 0.00 0.03 0.03 89 1018.8
20260903025605 18 183 0.0 0.0 0.00 0.03 0.03 89 1019.0
20260903025104 18 183 0.0 1.6 0.00 0.03 0.03 89 1019.2
20260903024604 18 182 0.0 0.0 0.00 0.03 0.03 89 1019.1
20260903024104 18 182 0.0 1.6 0.00 0.03 0.03 88 1019.2
20260903023605 18 182 0.0 1.6 0.00 0.03 0.03 88 1019.2
20260903023105 18 182 0.0 1.6 0.00 0.03 0.03 88 1019.2
20260903022604 19 182 0.0 0.0 0.00 0.03 0.03 87 1019.3
20260903022104 19 182 0.0 0.0 0.00 0.03 0.03 87 1019.4
20260903021605 19 182 0.0 0.0 0.00 0.03 0.03 86 1019.4
20260903021105 19 182 0.0 0.0 0.00 0.03 0.03 86 1019.5
20260903020605 19 182 0.0 0.0 0.00 0.03 0.03 86 1019.6
20260903020104 19 182 0.0 0.0 0.00 0.03 0.03 86 1019.6
20260903015605 19 182 0.0 0.0 0.00 0.03 0.03 85 1019.6
20260903013105 19 185 0.0 4.8 0.00 0.03 0.03 83 1019.5
20260903012605 19 169 0.0 3.2 0.00 0.03 0.03 83 1019.7
20260903012105 19 204 3.2 4.8 0.00 0.03 0.03 83 1019.6
20260903011604 19 164 0.0 4.8 0.00 0.03 0.03 83 1019.7
20260903011105 19 164 1.6 4.8 0.00 0.03 0.03 83 1019.6
20260903010604 19 155 3.2 4.8 0.00 0.03 0.03 83 1019.6
20260903010104 19 188 1.6 8.0 0.00 0.03 0.03 83 1019.7
20260903005605 19 148 1.6 4.8 0.00 0.03 0.03 84 1019.8
20260903004604 19 141 1.6 3.2 0.00 0.03 0.03 84 1019.9
20260903004105 19 138 0.0 3.2 0.00 0.03 0.03 83 1020.0
20260903003605 19 149 1.6 4.8 0.00 0.03 0.03 84 1019.9
20260903003105 20 219 0.0 1.6 0.00 0.03 0.03 84 1019.7
20260903002604 20 219 0.0 3.2 0.00 0.03 0.03 84 1019.7
20260903001604 20 157 0.0 1.6 0.00 0.03 0.03 82 1019.4
20260903001105 20 157 1.6 3.2 0.00 0.03 0.03 82 1019.3
20260903000604 20 157 4.8 4.8 0.00 0.03 0.03 82 1019.3
20260903000104 20 160 1.6 4.8 0.00 0.03 0.03 82 1019.1
20260902235605 20 196 3.2 4.8 0.00 0.03 0.03 82 1019.2
20260902235105 20 147 3.2 8.0 0.00 0.03 0.03 81 1019.3
20260902234604 20 168 3.2 12.9 0.00 0.03 0.03 81 1019.3
20260902234104 20 189 1.6 9.7 0.00 0.03 0.03 82 1019.4